Time,TemperatureF,DewpointF,PressureIn,WindDirection,WindDirectionDegrees,WindSpeedMPH,WindSpeedGustMPH,Humidity,HourlyPrecipIn,Conditions,Clouds,dailyrainin,SoftwareType,DateUTC
2013-01-19 00:02:00,12.0,6.0,-100.00,East,90,26.0,32.0,75,-99.99,,,-99.99,,2013-01-19 08:02:00,
2013-01-19 00:12:00,11.0,5.0,-100.00,SE,135,27.0,32.0,75,-99.99,,,-99.99,,2013-01-19 08:12:00,
2013-01-19 00:22:00,11.0,5.0,-100.00,SE,135,27.0,32.0,75,-99.99,,,-99.99,,2013-01-19 08:22:00,
2013-01-19 00:32:00,10.0,4.0,-100.00,SE,135,25.0,29.0,76,-99.99,,,-99.99,,2013-01-19 08:32:00,
2013-01-19 00:42:00,11.0,5.0,-100.00,SE,135,22.0,24.0,76,-99.99,,,-99.99,,2013-01-19 08:42:00,
2013-01-19 00:53:00,12.0,6.0,-100.00,SE,135,21.0,25.0,75,-99.99,,,-99.99,,2013-01-19 08:53:00,
2013-01-19 01:02:00,12.0,6.0,-100.00,SE,135,21.0,25.0,75,-99.99,,,-99.99,,2013-01-19 09:02:00,
2013-01-19 01:12:00,13.0,6.0,-100.00,SE,135,25.0,28.0,74,-99.99,,,-99.99,,2013-01-19 09:12:00,
2013-01-19 01:22:00,13.0,6.0,-100.00,SE,135,25.0,28.0,74,-99.99,,,-99.99,,2013-01-19 09:22:00,
2013-01-19 01:32:00,11.0,4.0,-100.00,SE,135,20.0,23.0,73,-99.99,,,-99.99,,2013-01-19 09:32:00,
2013-01-19 01:42:00,9.0,3.0,-100.00,SE,135,25.0,29.0,75,-99.99,,,-99.99,,2013-01-19 09:42:00,
2013-01-19 01:52:00,9.0,3.0,-100.00,SE,135,25.0,29.0,75,-99.99,,,-99.99,,2013-01-19 09:52:00,
2013-01-19 02:02:00,9.0,3.0,-100.00,SE,135,23.0,31.0,75,-99.99,,,-99.99,,2013-01-19 10:02:00,
2013-01-19 02:12:00,9.0,3.0,-100.00,SE,135,23.0,31.0,75,-99.99,,,-99.99,,2013-01-19 10:12:00,
2013-01-19 02:22:00,9.0,3.0,-100.00,SE,135,23.0,31.0,75,-99.99,,,-99.99,,2013-01-19 10:22:00,
2013-01-19 02:32:00,9.0,3.0,-100.00,SE,135,24.0,30.0,76,-99.99,,,-99.99,,2013-01-19 10:32:00,
2013-01-19 02:43:00,7.0,2.0,-100.00,SE,135,22.0,27.0,77,-99.99,,,-99.99,,2013-01-19 10:43:00,
2013-01-19 02:53:00,7.0,2.0,-100.00,SE,135,22.0,27.0,77,-99.99,,,-99.99,,2013-01-19 10:53:00,
2013-01-19 03:02:00,7.0,1.0,-100.00,SE,135,23.0,25.0,78,-99.99,,,-99.99,,2013-01-19 11:02:00,
2013-01-19 03:12:00,7.0,1.0,-100.00,SE,135,25.0,29.0,78,-99.99,,,-99.99,,2013-01-19 11:12:00,
2013-01-19 04:53:00,8.0,2.0,-100.00,SE,135,23.0,26.0,77,-99.99,,,-99.99,,2013-01-19 12:53:00,
2013-01-19 05:02:00,8.0,2.0,-100.00,SE,135,23.0,27.0,77,-99.99,,,-99.99,,2013-01-19 13:02:00,
2013-01-19 05:12:00,8.0,3.0,-100.00,SE,135,22.0,30.0,77,-99.99,,,-99.99,,2013-01-19 13:12:00,
2013-01-19 05:22:00,8.0,3.0,-100.00,SE,135,22.0,30.0,77,-99.99,,,-99.99,,2013-01-19 13:22:00,
2013-01-19 05:33:00,7.0,2.0,-100.00,SE,135,21.0,28.0,78,-99.99,,,-99.99,,2013-01-19 13:33:00,
2013-01-19 05:42:00,8.0,3.0,-100.00,SE,135,26.0,27.0,79,-99.99,,,-99.99,,2013-01-19 13:42:00,
2013-01-19 05:53:00,8.0,3.0,-100.00,SE,135,26.0,27.0,79,-99.99,,,-99.99,,2013-01-19 13:53:00,
2013-01-19 06:02:00,9.0,3.0,-100.00,SE,135,24.0,30.0,78,-99.99,,,-99.99,,2013-01-19 14:02:00,
2013-01-19 06:12:00,7.0,2.0,-100.00,SE,135,24.0,27.0,79,-99.99,,,-99.99,,2013-01-19 14:12:00,
2013-01-19 06:22:00,7.0,2.0,-100.00,SE,135,24.0,27.0,79,-99.99,,,-99.99,,2013-01-19 14:22:00,
2013-01-19 06:33:00,6.0,1.0,-100.00,SE,135,23.0,29.0,80,-99.99,,,-99.99,,2013-01-19 14:33:00,
2013-01-19 06:42:00,5.0,1.0,-100.00,SE,135,23.0,28.0,80,-99.99,,,-99.99,,2013-01-19 14:42:00,
2013-01-19 06:53:00,5.0,1.0,-100.00,SE,135,23.0,28.0,80,-99.99,,,-99.99,,2013-01-19 14:53:00,
2013-01-19 07:02:00,5.0,0.0,-100.00,SE,135,22.0,26.0,80,-99.99,,,-99.99,,2013-01-19 15:02:00,
2013-01-19 07:12:00,6.0,1.0,-100.00,SE,135,20.0,24.0,80,-99.99,,,-99.99,,2013-01-19 15:12:00,
2013-01-19 07:22:00,6.0,1.0,-100.00,SE,135,20.0,24.0,80,-99.99,,,-99.99,,2013-01-19 15:22:00,
2013-01-19 07:33:00,6.0,2.0,-100.00,SE,135,19.0,22.0,80,-99.99,,,-99.99,,2013-01-19 15:33:00,
2013-01-19 07:42:00,7.0,2.0,-100.00,SE,135,19.0,24.0,80,-99.99,,,-99.99,,2013-01-19 15:42:00,
2013-01-19 07:53:00,7.0,2.0,-100.00,SE,135,19.0,24.0,80,-99.99,,,-99.99,,2013-01-19 15:53:00,
2013-01-19 08:02:00,7.0,2.0,-100.00,SE,135,19.0,24.0,80,-99.99,,,-99.99,,2013-01-19 16:02:00,
2013-01-19 08:12:00,9.0,3.0,-100.00,SE,135,22.0,26.0,78,-99.99,,,-99.99,,2013-01-19 16:12:00,
2013-01-19 08:23:00,9.0,3.0,-100.00,SE,135,22.0,26.0,78,-99.99,,,-99.99,,2013-01-19 16:23:00,
2013-01-19 08:33:00,7.0,1.0,-100.00,SE,135,19.0,24.0,78,-99.99,,,-99.99,,2013-01-19 16:33:00,
2013-01-19 08:42:00,6.0,1.0,-100.00,SE,135,14.0,17.0,78,-99.99,,,-99.99,,2013-01-19 16:42:00,
2013-01-19 08:54:00,6.0,1.0,-100.00,SE,135,14.0,17.0,78,-99.99,,,-99.99,,2013-01-19 16:54:00,
2013-01-19 09:02:00,7.0,2.0,-100.00,SE,135,22.0,29.0,78,-99.99,,,-99.99,,2013-01-19 17:02:00,
2013-01-19 09:14:00,9.0,4.0,-100.00,SE,135,20.0,27.0,78,-99.99,,,-99.99,,2013-01-19 17:14:00,
2013-01-19 09:26:00,9.0,4.0,-100.00,SE,135,20.0,27.0,78,-99.99,,,-99.99,,2013-01-19 17:26:00,
2013-01-19 09:33:00,9.0,4.0,-100.00,SE,135,20.0,27.0,78,-99.99,,,-99.99,,2013-01-19 17:33:00,
2013-01-19 09:44:00,10.0,4.0,-100.00,SE,135,23.0,27.0,77,-99.99,,,-99.99,,2013-01-19 17:44:00,
2013-01-19 09:54:00,10.0,4.0,-100.00,SE,135,23.0,27.0,77,-99.99,,,-99.99,,2013-01-19 17:54:00,
2013-01-19 10:13:00,12.0,6.0,-100.00,SE,135,27.0,29.0,76,-99.99,,,-99.99,,2013-01-19 18:13:00,
2013-01-19 10:25:00,12.0,6.0,-100.00,SE,135,27.0,29.0,76,-99.99,,,-99.99,,2013-01-19 18:25:00,
2013-01-19 10:33:00,13.0,6.0,-100.00,East,90,29.0,30.0,74,-99.99,,,-99.99,,2013-01-19 18:33:00,
2013-01-19 10:44:00,14.0,7.0,-100.00,SE,135,27.0,30.0,73,-99.99,,,-99.99,,2013-01-19 18:44:00,
2013-01-19 11:34:00,17.0,8.0,-100.00,SE,135,30.0,37.0,69,-99.99,,,-99.99,,2013-01-19 19:34:00,
2013-01-19 11:44:00,17.0,9.0,-100.00,East,90,32.0,35.0,68,-99.99,,,-99.99,,2013-01-19 19:44:00,
2013-01-19 11:55:00,17.0,9.0,-100.00,East,90,32.0,35.0,68,-99.99,,,-99.99,,2013-01-19 19:55:00,
2013-01-19 12:05:00,17.0,9.0,-100.00,East,90,32.0,35.0,68,-99.99,,,-99.99,,2013-01-19 20:05:00,
2013-01-19 12:15:00,17.0,8.0,-100.00,East,90,30.0,33.0,67,-99.99,,,-99.99,,2013-01-19 20:15:00,
2013-01-19 12:24:00,17.0,8.0,-100.00,East,90,30.0,33.0,67,-99.99,,,-99.99,,2013-01-19 20:24:00,
2013-01-19 12:35:00,18.0,9.0,-100.00,East,90,29.0,32.0,67,-99.99,,,-99.99,,2013-01-19 20:35:00,
2013-01-19 12:55:00,17.0,8.0,-100.00,SE,135,29.0,34.0,67,-99.99,,,-99.99,,2013-01-19 20:55:00,
2013-01-19 13:03:00,17.0,8.0,-100.00,SE,135,29.0,34.0,67,-99.99,,,-99.99,,2013-01-19 21:03:00,
2013-01-19 13:13:00,17.0,8.0,-100.00,East,90,28.0,33.0,68,-99.99,,,-99.99,,2013-01-19 21:13:00,
2013-01-19 13:24:00,17.0,8.0,-100.00,East,90,28.0,33.0,68,-99.99,,,-99.99,,2013-01-19 21:24:00,
2013-01-19 13:47:00,17.0,8.0,-100.00,East,90,28.0,32.0,68,-99.99,,,-99.99,,2013-01-19 21:47:00,
2013-01-19 13:58:00,17.0,8.0,-100.00,East,90,28.0,32.0,68,-99.99,,,-99.99,,2013-01-19 21:58:00,
2013-01-19 15:14:00,20.0,9.0,-100.00,East,90,27.0,30.0,62,-99.99,,,-99.99,,2013-01-19 23:14:00,
2013-01-19 15:24:00,20.0,9.0,-100.00,East,90,27.0,30.0,62,-99.99,,,-99.99,,2013-01-19 23:24:00,
2013-01-19 15:34:00,20.0,9.0,-100.00,East,90,26.0,32.0,62,-99.99,,,-99.99,,2013-01-19 23:34:00,
2013-01-19 15:44:00,20.0,9.0,-100.00,East,90,26.0,30.0,61,-99.99,,,-99.99,,2013-01-19 23:44:00,
2013-01-19 16:03:00,20.0,8.0,-100.00,East,90,26.0,31.0,61,-99.99,,,-99.99,,2013-01-20 00:03:00,
2013-01-19 16:14:00,19.0,8.0,-100.00,East,90,27.0,29.0,62,-99.99,,,-99.99,,2013-01-20 00:14:00,
2013-01-19 16:24:00,19.0,8.0,-100.00,East,90,27.0,29.0,62,-99.99,,,-99.99,,2013-01-20 00:24:00,
2013-01-19 16:44:00,19.0,8.0,-100.00,East,90,27.0,30.0,62,-99.99,,,-99.99,,2013-01-20 00:44:00,
2013-01-19 16:55:00,19.0,8.0,-100.00,East,90,27.0,30.0,62,-99.99,,,-99.99,,2013-01-20 00:55:00,
2013-01-19 17:03:00,19.0,8.0,-100.00,East,90,25.0,28.0,62,-99.99,,,-99.99,,2013-01-20 01:03:00,
2013-01-19 17:24:00,19.0,9.0,-100.00,East,90,24.0,29.0,63,-99.99,,,-99.99,,2013-01-20 01:24:00,
2013-01-19 17:33:00,19.0,8.0,-100.00,East,90,24.0,27.0,62,-99.99,,,-99.99,,2013-01-20 01:33:00,
2013-01-19 17:44:00,18.0,8.0,-100.00,SE,135,21.0,25.0,64,-99.99,,,-99.99,,2013-01-20 01:44:00,
2013-01-19 18:03:00,18.0,8.0,-100.00,SE,135,22.0,27.0,65,-99.99,,,-99.99,,2013-01-20 02:03:00,
2013-01-19 18:13:00,17.0,8.0,-100.00,SE,135,21.0,22.0,66,-99.99,,,-99.99,,2013-01-20 02:13:00,
2013-01-19 18:24:00,17.0,8.0,-100.00,SE,135,21.0,22.0,66,-99.99,,,-99.99,,2013-01-20 02:24:00,
2013-01-19 18:34:00,17.0,8.0,-100.00,SE,135,21.0,23.0,66,-99.99,,,-99.99,,2013-01-20 02:34:00,
2013-01-19 18:43:00,16.0,7.0,-100.00,SE,135,19.0,21.0,66,-99.99,,,-99.99,,2013-01-20 02:43:00,
2013-01-19 18:58:00,16.0,7.0,-100.00,SE,135,19.0,21.0,66,-99.99,,,-99.99,,2013-01-20 02:58:00,
2013-01-19 19:05:00,16.0,7.0,-100.00,SE,135,22.0,26.0,67,-99.99,,,-99.99,,2013-01-20 03:05:00,
2013-01-19 19:13:00,16.0,7.0,-100.00,SE,135,22.0,27.0,67,-99.99,,,-99.99,,2013-01-20 03:13:00,
2013-01-19 19:23:00,16.0,7.0,-100.00,SE,135,22.0,27.0,67,-99.99,,,-99.99,,2013-01-20 03:23:00,
2013-01-19 19:44:00,15.0,7.0,-100.00,SE,135,25.0,29.0,69,-99.99,,,-99.99,,2013-01-20 03:44:00,
2013-01-19 19:55:00,15.0,7.0,-100.00,SE,135,25.0,29.0,69,-99.99,,,-99.99,,2013-01-20 03:55:00,
2013-01-19 20:03:00,15.0,7.0,-100.00,SE,135,26.0,27.0,69,-99.99,,,-99.99,,2013-01-20 04:03:00,
2013-01-19 20:14:00,14.0,6.0,-100.00,SE,135,25.0,27.0,70,-99.99,,,-99.99,,2013-01-20 04:14:00,
2013-01-19 20:24:00,14.0,6.0,-100.00,SE,135,25.0,27.0,70,-99.99,,,-99.99,,2013-01-20 04:24:00,
2013-01-19 20:33:00,14.0,6.0,-100.00,SE,135,24.0,26.0,70,-99.99,,,-99.99,,2013-01-20 04:33:00,
2013-01-19 20:43:00,14.0,6.0,-100.00,SE,135,22.0,25.0,71,-99.99,,,-99.99,,2013-01-20 04:43:00,
2013-01-19 20:55:00,14.0,6.0,-100.00,SE,135,22.0,25.0,71,-99.99,,,-99.99,,2013-01-20 04:55:00,
2013-01-19 21:02:00,14.0,6.0,-100.00,SE,135,21.0,23.0,71,-99.99,,,-99.99,,2013-01-20 05:02:00,
2013-01-19 21:12:00,11.0,4.0,-100.00,SE,135,19.0,24.0,72,-99.99,,,-99.99,,2013-01-20 05:12:00,
2013-01-19 21:22:00,11.0,4.0,-100.00,SE,135,19.0,24.0,72,-99.99,,,-99.99,,2013-01-20 05:22:00,
2013-01-19 21:32:00,12.0,5.0,-100.00,SE,135,21.0,24.0,73,-99.99,,,-99.99,,2013-01-20 05:32:00,
2013-01-19 21:42:00,12.0,5.0,-100.00,SE,135,21.0,24.0,73,-99.99,,,-99.99,,2013-01-20 05:42:00,
2013-01-19 21:53:00,12.0,5.0,-100.00,SE,135,21.0,24.0,73,-99.99,,,-99.99,,2013-01-20 05:53:00,
2013-01-19 22:01:00,11.0,4.0,-100.00,SE,135,24.0,29.0,74,-99.99,,,-99.99,,2013-01-20 06:01:00,
2013-01-19 22:02:00,11.0,4.0,-100.00,SE,135,23.0,29.0,73,-99.99,,,-99.99,,2013-01-20 06:02:00,
2013-01-19 22:12:00,11.0,4.0,-100.00,SE,135,21.0,25.0,74,-99.99,,,-99.99,,2013-01-20 06:12:00,
2013-01-19 22:22:00,11.0,4.0,-100.00,SE,135,21.0,25.0,74,-99.99,,,-99.99,,2013-01-20 06:22:00,
2013-01-19 22:32:00,11.0,4.0,-100.00,SE,135,24.0,29.0,74,-99.99,,,-99.99,,2013-01-20 06:32:00,
2013-01-19 22:42:00,11.0,4.0,-100.00,SE,135,24.0,29.0,74,-99.99,,,-99.99,,2013-01-20 06:42:00,
2013-01-19 22:53:00,11.0,4.0,-100.00,SE,135,24.0,29.0,74,-99.99,,,-99.99,,2013-01-20 06:53:00,
2013-01-19 23:12:00,11.0,5.0,-100.00,SE,135,19.0,25.0,74,-99.99,,,-99.99,,2013-01-20 07:12:00,
2013-01-19 23:22:00,11.0,5.0,-100.00,SE,135,19.0,25.0,74,-99.99,,,-99.99,,2013-01-20 07:22:00,
2013-01-19 23:32:00,11.0,4.0,-100.00,SE,135,19.0,22.0,73,-99.99,,,-99.99,,2013-01-20 07:32:00,
2013-01-19 23:42:00,11.0,5.0,-100.00,SE,135,22.0,25.0,74,-99.99,,,-99.99,,2013-01-20 07:42:00,
2013-01-19 23:52:00,11.0,5.0,-100.00,SE,135,22.0,25.0,74,-99.99,,,-99.99,,2013-01-20 07:52:00,